DAL320 KLAX-KATL

Flight info

Callsign DAL320
Flight time N/A
Altitude 35000
Route DOTSS2 CNERY DCT BLH J169 TFD J50 SSO DCT EWM J66 ABI J4 FUZ Q184 MERDN DCT ORRKK HOBTT3
Aircraft B739/M-SDE2E3FGHIRWXY/LB1

Departure

Time 2026-04-26 05:01
Airport Los Angeles International Airport (KLAX)

Arrival

Time N/A
Airport Hartsfield Jackson Atlanta International Airport (KATL)
Time Latitude Longitude Altitude Speed Heading
2026-04-26 04:38 33.94609 -118.40482 92 ft 0 kts 96°
2026-04-26 04:43 33.94609 -118.40483 92 ft 1 kts 96°
2026-04-26 04:43 33.94611 -118.40510 93 ft 4 kts 96°
2026-04-26 04:43 33.94613 -118.40534 93 ft 4 kts 62°
2026-04-26 04:43 33.94595 -118.40548 92 ft 4 kts 21°
2026-04-26 04:44 33.94603 -118.40550 94 ft 4 kts 353°
2026-04-26 04:44 33.94627 -118.40562 95 ft 4 kts 340°
2026-04-26 04:44 33.94644 -118.40565 92 ft 0 kts 353°
2026-04-26 04:48 33.94647 -118.40566 92 ft 1 kts 353°
2026-04-26 04:49 33.94651 -118.40566 92 ft 1 kts 353°
2026-04-26 04:49 33.94655 -118.40567 92 ft 1 kts 353°
2026-04-26 04:49 33.94662 -118.40568 93 ft 1 kts 352°
2026-04-26 04:49 33.94673 -118.40570 92 ft 2 kts 352°
2026-04-26 04:50 33.94685 -118.40572 93 ft 2 kts 354°
2026-04-26 04:50 33.94697 -118.40573 92 ft 2 kts 355°
2026-04-26 04:50 33.94709 -118.40574 92 ft 2 kts 355°
2026-04-26 04:50 33.94720 -118.40575 92 ft 2 kts 354°
2026-04-26 04:51 33.94731 -118.40577 92 ft 2 kts 354°
2026-04-26 04:51 33.94747 -118.40579 93 ft 3 kts 353°
2026-04-26 04:51 33.94760 -118.40581 92 ft 2 kts 350°
2026-04-26 04:51 33.94764 -118.40582 92 ft 0 kts 350°
2026-04-26 04:52 33.94768 -118.40582 92 ft 2 kts 350°
2026-04-26 04:52 33.94781 -118.40579 92 ft 2 kts 36°
2026-04-26 04:52 33.94784 -118.40554 92 ft 5 kts 84°
2026-04-26 04:53 33.94789 -118.40505 92 ft 6 kts 82°
2026-04-26 04:53 33.94795 -118.40456 92 ft 6 kts 82°
2026-04-26 04:53 33.94800 -118.40407 93 ft 6 kts 83°
2026-04-26 04:53 33.94805 -118.40358 93 ft 6 kts 82°
2026-04-26 04:54 33.94811 -118.40310 92 ft 6 kts 77°
2026-04-26 04:54 33.94820 -118.40263 93 ft 6 kts 77°
2026-04-26 04:54 33.94829 -118.40216 93 ft 6 kts 77°
2026-04-26 04:54 33.94833 -118.40170 94 ft 6 kts 85°
2026-04-26 04:55 33.94837 -118.40123 92 ft 6 kts 80°
2026-04-26 04:55 33.94858 -118.40086 93 ft 5 kts 30°
2026-04-26 04:55 33.94895 -118.40077 93 ft 5 kts 15°
2026-04-26 04:55 33.94922 -118.40047 93 ft 5 kts 60°
2026-04-26 04:56 33.94927 -118.40007 92 ft 1 kts 95°
2026-04-26 04:56 33.94927 -118.40006 92 ft 0 kts 95°
2026-04-26 04:59 33.94928 -118.39978 92 ft 8 kts 82°
2026-04-26 04:59 33.94971 -118.39914 94 ft 11 kts 19°
2026-04-26 05:00 33.95040 -118.39924 93 ft 8 kts 313°
2026-04-26 05:00 33.95038 -118.39991 92 ft 8 kts 264°
2026-04-26 05:00 33.95023 -118.40138 96 ft 43 kts 263°
2026-04-26 05:00 33.94956 -118.40792 98 ft 112 kts 263°
2026-04-26 05:01 33.94836 -118.41961 98 ft 167 kts 263°
2026-04-26 05:01 33.94691 -118.43423 673 ft 170 kts 262°
2026-04-26 05:01 33.94548 -118.44820 1578 ft 169 kts 263°
2026-04-26 05:01 33.94401 -118.46312 1866 ft 190 kts 263°
2026-04-26 05:02 33.94238 -118.47960 2181 ft 206 kts 265°
2026-04-26 05:02 33.94179 -118.49720 2650 ft 214 kts 269°
2026-04-26 05:02 33.94183 -118.51594 2987 ft 234 kts 268°
2026-04-26 05:02 33.94048 -118.53573 3522 ft 243 kts 265°
2026-04-26 05:03 33.93918 -118.55576 4310 ft 238 kts 268°
2026-04-26 05:03 33.93800 -118.57536 4708 ft 233 kts 265°
2026-04-26 05:03 33.93638 -118.59451 4832 ft 228 kts 264°
2026-04-26 05:03 33.93482 -118.61320 5063 ft 224 kts 262°
2026-04-26 05:04 33.92848 -118.63079 5301 ft 242 kts 227°
2026-04-26 05:04 33.91408 -118.64052 6219 ft 234 kts 196°
2026-04-26 05:04 33.89834 -118.64296 7083 ft 235 kts 183°
2026-04-26 05:04 33.88154 -118.64152 7546 ft 246 kts 178°
2026-04-26 05:05 33.86454 -118.63953 8103 ft 252 kts 179°
2026-04-26 05:05 33.84717 -118.63753 8889 ft 250 kts 173°
2026-04-26 05:05 33.83088 -118.63014 9678 ft 256 kts 153°
2026-04-26 05:05 33.81587 -118.61798 10305 ft 261 kts 152°
2026-04-26 05:06 33.80076 -118.60565 10882 ft 264 kts 151°
2026-04-26 05:06 33.78539 -118.59288 11242 ft 277 kts 151°
2026-04-26 05:06 33.76896 -118.57922 11400 ft 297 kts 149°
2026-04-26 05:06 33.75133 -118.56506 11511 ft 314 kts 153°
2026-04-26 05:07 33.73308 -118.54932 11708 ft 334 kts 148°
2026-04-26 05:07 33.71389 -118.53241 12028 ft 349 kts 150°
2026-04-26 05:07 33.69321 -118.51690 12373 ft 359 kts 145°
2026-04-26 05:07 33.67840 -118.49226 12995 ft 374 kts 118°
2026-04-26 05:08 33.67152 -118.46213 13806 ft 376 kts 99°
2026-04-26 05:08 33.66821 -118.43146 14484 ft 377 kts 101°
2026-04-26 05:08 33.66219 -118.40050 14809 ft 385 kts 111°
2026-04-26 05:08 33.65329 -118.36984 15214 ft 392 kts 113°
2026-04-26 05:09 33.64402 -118.33916 15882 ft 391 kts 110°
2026-04-26 05:09 33.63874 -118.30705 16518 ft 397 kts 95°
2026-04-26 05:09 33.63885 -118.27352 16896 ft 406 kts 88°
2026-04-26 05:09 33.64074 -118.23943 17340 ft 412 kts 87°
2026-04-26 05:10 33.64257 -118.20500 17872 ft 415 kts 88°
2026-04-26 05:10 33.64381 -118.17025 18378 ft 418 kts 90°
2026-04-26 05:10 33.64447 -118.13565 18799 ft 422 kts 91°
2026-04-26 05:10 33.64473 -118.10029 19241 ft 426 kts 92°
2026-04-26 05:11 33.64476 -118.06461 19683 ft 430 kts 92°
2026-04-26 05:11 33.64469 -118.02862 20128 ft 433 kts 93°
2026-04-26 05:11 33.64459 -117.99230 20554 ft 437 kts 93°
2026-04-26 05:11 33.64449 -117.95566 20970 ft 441 kts 94°
2026-04-26 05:12 33.64440 -117.91875 21341 ft 446 kts 94°
2026-04-26 05:12 33.64432 -117.88123 21694 ft 451 kts 94°
2026-04-26 05:12 33.64424 -117.84347 22127 ft 454 kts 94°
2026-04-26 05:12 33.64406 -117.80545 22565 ft 456 kts 96°
2026-04-26 05:13 33.63942 -117.76863 22904 ft 450 kts 112°
2026-04-26 05:13 33.63034 -117.73270 23313 ft 451 kts 114°
2026-04-26 05:13 33.62086 -117.69669 23702 ft 454 kts 114°
2026-04-26 05:13 33.61138 -117.66040 24062 ft 457 kts 114°
2026-04-26 05:14 33.60200 -117.62376 24428 ft 460 kts 114°
2026-04-26 05:14 33.59273 -117.58690 24780 ft 463 kts 113°
2026-04-26 05:14 33.58350 -117.54976 25129 ft 467 kts 113°
2026-04-26 05:14 33.57423 -117.51231 25469 ft 469 kts 113°
2026-04-26 05:15 33.56493 -117.47470 25790 ft 472 kts 113°
2026-04-26 05:15 33.55557 -117.43687 26122 ft 475 kts 114°
2026-04-26 05:15 33.54625 -117.39937 26463 ft 477 kts 114°
2026-04-26 05:15 33.53674 -117.36117 26685 ft 482 kts 114°
2026-04-26 05:16 33.52708 -117.32252 26902 ft 487 kts 114°
2026-04-26 05:16 33.51737 -117.28357 27325 ft 487 kts 114°
2026-04-26 05:16 33.50774 -117.24462 27698 ft 489 kts 112°
2026-04-26 05:16 33.50230 -117.20381 27912 ft 506 kts 97°
2026-04-26 05:17 33.50171 -117.16146 28163 ft 511 kts 95°
2026-04-26 05:17 33.50181 -117.11874 28505 ft 513 kts 95°
2026-04-26 05:17 33.50197 -117.07599 28835 ft 514 kts 95°
2026-04-26 05:17 33.50201 -117.03358 29106 ft 517 kts 96°
2026-04-26 05:18 33.50169 -116.99044 29369 ft 520 kts 96°
2026-04-26 05:18 33.50113 -116.94709 29663 ft 522 kts 96°
2026-04-26 05:18 33.50043 -116.90342 29960 ft 525 kts 96°
2026-04-26 05:18 33.49971 -116.85971 30150 ft 526 kts 97°
2026-04-26 05:19 33.49898 -116.81572 30330 ft 530 kts 97°
2026-04-26 05:19 33.49823 -116.77149 30530 ft 533 kts 97°
2026-04-26 05:19 33.49749 -116.72702 30767 ft 533 kts 97°
2026-04-26 05:19 33.49676 -116.68270 31085 ft 532 kts 97°
2026-04-26 05:20 33.49604 -116.63913 31430 ft 530 kts 97°
2026-04-26 05:20 33.49528 -116.59491 31688 ft 530 kts 97°
2026-04-26 05:20 33.49449 -116.55070 31796 ft 533 kts 97°
2026-04-26 05:20 33.49366 -116.50641 32088 ft 531 kts 98°
2026-04-26 05:21 33.49288 -116.46228 32474 ft 528 kts 98°
2026-04-26 05:21 33.49207 -116.41838 32758 ft 528 kts 98°
2026-04-26 05:21 33.49134 -116.37439 32969 ft 529 kts 97°
2026-04-26 05:21 33.49071 -116.33024 33158 ft 530 kts 97°
2026-04-26 05:22 33.49010 -116.28668 33265 ft 530 kts 97°
2026-04-26 05:22 33.48945 -116.24256 33447 ft 530 kts 98°
2026-04-26 05:22 33.48877 -116.19840 33665 ft 531 kts 98°
2026-04-26 05:22 33.48808 -116.15418 33899 ft 529 kts 98°
2026-04-26 05:23 33.48735 -116.11010 34064 ft 530 kts 98°
2026-04-26 05:23 33.48660 -116.06591 34179 ft 532 kts 97°
2026-04-26 05:23 33.48885 -116.02134 34301 ft 543 kts 82°
2026-04-26 05:23 33.50000 -115.97780 34493 ft 547 kts 72°
2026-04-26 05:24 33.51332 -115.93525 34751 ft 545 kts 71°
2026-04-26 05:24 33.52677 -115.89268 34838 ft 547 kts 71°
2026-04-26 05:24 33.55289 -115.80667 34831 ft 551 kts 72°
2026-04-26 05:25 33.57796 -115.72043 34811 ft 551 kts 73°
2026-04-26 05:25 33.60304 -115.63363 34762 ft 551 kts 73°
2026-04-26 05:26 33.61946 -115.54543 34789 ft 532 kts 98°
2026-04-26 05:26 33.61606 -115.45734 34792 ft 529 kts 99°
2026-04-26 05:27 33.61288 -115.36972 34789 ft 529 kts 98°
2026-04-26 05:27 33.61048 -115.28173 34795 ft 527 kts 98°
2026-04-26 05:28 33.60824 -115.19389 34794 ft 526 kts 99°
2026-04-26 05:28 33.60597 -115.10632 34793 ft 525 kts 99°
2026-04-26 05:29 33.60352 -115.01878 34788 ft 525 kts 99°
2026-04-26 05:29 33.60102 -114.93175 34800 ft 526 kts 99°
2026-04-26 05:30 33.59846 -114.84380 34809 ft 530 kts 99°
2026-04-26 05:30 33.59569 -114.75515 34808 ft 532 kts 101°
2026-04-26 05:31 33.58893 -114.66685 34816 ft 532 kts 104°
2026-04-26 05:31 33.58026 -114.57872 34809 ft 534 kts 104°
2026-04-26 05:32 33.57181 -114.49018 34797 ft 535 kts 104°
2026-04-26 05:32 33.56377 -114.40222 34798 ft 534 kts 104°
2026-04-26 05:33 33.55579 -114.31376 34802 ft 533 kts 104°
2026-04-26 05:33 33.54772 -114.22589 34812 ft 529 kts 104°
2026-04-26 05:34 33.53956 -114.13831 34795 ft 527 kts 104°
2026-04-26 05:34 33.53139 -114.05132 34800 ft 524 kts 105°
2026-04-26 05:35 33.52325 -113.96521 34818 ft 523 kts 105°
2026-04-26 05:35 33.51504 -113.87873 34854 ft 522 kts 105°
2026-04-26 05:36 33.50691 -113.79242 34861 ft 522 kts 105°
2026-04-26 05:36 33.49861 -113.70584 34902 ft 523 kts 105°
2026-04-26 05:37 33.49029 -113.61911 34907 ft 524 kts 105°
2026-04-26 05:37 33.48191 -113.53224 34900 ft 526 kts 105°
2026-04-26 05:38 33.47348 -113.44561 34880 ft 528 kts 105°
2026-04-26 05:38 33.46921 -113.40188 34771 ft 529 kts 105°
2026-04-26 05:38 33.46340 -113.35870 34713 ft 520 kts 113°
2026-04-26 05:39 33.45301 -113.31783 34768 ft 506 kts 123°
2026-04-26 05:39 33.43850 -113.28005 34786 ft 498 kts 127°
2026-04-26 05:39 33.40808 -113.20548 34768 ft 499 kts 127°
2026-04-26 05:40 33.37798 -113.13093 34770 ft 502 kts 127°
2026-04-26 05:40 33.34796 -113.05547 34767 ft 503 kts 126°
2026-04-26 05:41 33.31799 -112.97993 34788 ft 503 kts 126°
2026-04-26 05:41 33.28797 -112.90427 34768 ft 503 kts 126°
2026-04-26 05:42 33.25791 -112.82874 34794 ft 504 kts 126°
2026-04-26 05:42 33.22790 -112.75369 34798 ft 504 kts 126°
2026-04-26 05:43 33.19769 -112.67828 34794 ft 504 kts 126°
2026-04-26 05:43 33.16743 -112.60280 34794 ft 504 kts 127°
2026-04-26 05:44 33.13699 -112.52729 34774 ft 504 kts 127°
2026-04-26 05:44 33.10691 -112.45242 34772 ft 503 kts 126°
2026-04-26 05:45 33.07658 -112.37716 34778 ft 503 kts 127°
2026-04-26 05:45 33.04615 -112.30199 34781 ft 503 kts 127°
2026-04-26 05:46 33.01571 -112.22697 34795 ft 503 kts 126°
2026-04-26 05:46 32.98543 -112.15252 34810 ft 503 kts 127°
2026-04-26 05:47 32.95485 -112.07742 34779 ft 504 kts 126°
2026-04-26 05:47 32.92423 -112.00244 34827 ft 504 kts 126°
2026-04-26 05:48 32.89355 -111.92737 34846 ft 505 kts 125°
2026-04-26 05:48 32.88020 -111.88833 34832 ft 518 kts 115°
2026-04-26 05:48 32.87081 -111.84732 34869 ft 521 kts 112°
2026-04-26 05:49 32.84471 -111.72172 34840 ft 522 kts 113°
2026-04-26 05:50 32.82625 -111.63834 34843 ft 521 kts 114°
2026-04-26 05:50 32.80751 -111.55514 34778 ft 522 kts 114°
2026-04-26 05:51 32.78881 -111.47236 34828 ft 523 kts 114°
2026-04-26 05:51 32.76987 -111.38882 34831 ft 523 kts 114°
2026-04-26 05:52 32.75089 -111.30516 34844 ft 526 kts 113°
2026-04-26 05:52 32.73179 -111.22118 34840 ft 527 kts 114°
2026-04-26 05:53 32.71269 -111.13761 34818 ft 528 kts 114°
2026-04-26 05:53 32.69340 -111.05337 34818 ft 529 kts 114°
2026-04-26 05:54 32.67400 -110.96905 34802 ft 529 kts 114°
2026-04-26 05:54 32.65460 -110.88497 34799 ft 527 kts 114°
2026-04-26 05:55 32.63532 -110.80174 34771 ft 526 kts 114°
2026-04-26 05:55 32.61588 -110.71818 34799 ft 525 kts 114°
2026-04-26 05:56 32.59651 -110.63492 34811 ft 523 kts 114°
2026-04-26 05:56 32.57709 -110.55180 34813 ft 522 kts 114°
2026-04-26 05:57 32.55772 -110.46893 34809 ft 522 kts 114°
2026-04-26 05:57 32.53845 -110.38661 34824 ft 522 kts 114°
2026-04-26 05:58 32.51890 -110.30368 34781 ft 522 kts 114°
2026-04-26 05:58 32.49942 -110.22087 34812 ft 523 kts 114°
2026-04-26 05:59 32.47978 -110.13797 34831 ft 523 kts 114°
2026-04-26 05:59 32.46022 -110.05566 34813 ft 523 kts 114°
2026-04-26 06:00 32.44056 -109.97288 34859 ft 523 kts 114°
2026-04-26 06:00 32.42076 -109.89006 34832 ft 522 kts 114°
2026-04-26 06:01 32.40097 -109.80735 34831 ft 522 kts 114°
2026-04-26 06:01 32.38126 -109.72528 34818 ft 521 kts 114°
2026-04-26 06:02 32.36143 -109.64293 34793 ft 520 kts 114°
2026-04-26 06:02 32.34151 -109.56063 34811 ft 521 kts 114°
2026-04-26 06:03 32.32153 -109.47836 34817 ft 521 kts 114°
2026-04-26 06:03 32.30148 -109.39597 34807 ft 521 kts 114°
2026-04-26 06:04 32.28151 -109.31414 34812 ft 523 kts 114°
2026-04-26 06:04 32.26409 -109.23013 34801 ft 534 kts 103°
2026-04-26 06:05 32.25593 -109.14262 34814 ft 538 kts 101°
2026-04-26 06:05 32.24870 -109.05434 34782 ft 541 kts 102°
2026-04-26 06:06 32.24069 -108.96649 34810 ft 542 kts 102°